RH
53 57 58 55 55 57 60 64 68 71 73 72 69 66 62 60 58 57 57 57 58 59 59 59 59 58 57 56 57 57 59 60 62 63 65 68 72 78 84 88 92 93 90 89 88 88 89 88 86 84 82 82 81 82 82 83 83 83 84 85 87 88 89 89 87 84 81 78 76 75 77 77 79 79 78 79 79 79 77 75 75 74 72 70 70 72
58 57 56 55 56 58 62 65 68 70 71 69 66 64 61 60 60 60 60 60 61 61 61 60 59 58 58 58 58 59 61 62 64 66 68 70 75 81 88 91 93 92 90 89 88 88 88 87 85 83 82 83 84 84 84 83 83 83 84 86 87 88 87 84 81 79 79 77 77 77 79 79 79 78 79 79 78 77 76 74 73 71 70 71 71 73
56 56 57 59 61 63 66 68 69 69 68 66 65 63 62 62 62 63 63 64 64 63 62 60 59 59 60 60 60 60 61 63 65 67 69 71 77 83 88 92 93 92 92 90 89 88 87 85 84 83 83 85 87 87 87 86 86 87 89 89 89 87 85 82 81 81 81 80 81 81 82 81 80 79 78 77 76 76 75 74 74 74 73 75 76 77
58 60 62 64 67 69 70 71 71 70 69 67 65 64 64 65 66 67 68 68 67 65 63 62 62 62 62 61 60 60 61 63 66 68 68 69 74 79 86 91 94 94 94 91 89 87 85 85 85 85 84 86 88 90 91 90 91 93 93 91 88 86 84 82 82 82 81 82 83 83 82 81 79 78 77 76 76 76 76 76 77 78 78 80 81 81
61 63 66 69 71 72 73 73 72 71 69 68 68 68 69 70 71 72 72 71 70 69 67 66 66 66 66 64 62 61 61 64 67 68 68 68 69 73 78 86 88 90 93 90 87 86 84 85 85 85 86 87 88 91 95 95 95 93 91 88 86 85 84 83 83 83 83 83 82 81 80 79 78 77 77 77 77 77 77 79 80 81 81 82 83 83
64 67 70 72 74 74 75 75 74 73 72 72 73 74 75 76 76 76 75 74 73 72 72 71 71 70 70 68 66 64 64 66 68 69 69 66 66 68 71 76 77 79 82 82 83 85 84 85 85 85 85 86 87 90 93 93 92 90 88 86 85 85 84 85 85 85 85 83 82 81 80 79 78 78 78 78 78 79 79 81 83 84 85 84 84 84
68 70 73 75 77 77 78 78 77 77 77 77 77 77 78 78 78 78 77 77 76 76 76 76 75 74 73 71 69 68 67 68 69 69 69 67 66 67 70 72 72 72 72 76 80 84 85 85 85 85 85 86 87 88 89 89 88 88 88 87 87 87 87 86 86 86 83 81 80 80 80 79 79 79 79 79 80 81 82 85 86 87 90 89 86 85
72 74 77 78 79 80 80 80 80 80 80 80 79 78 77 77 76 76 77 78 79 79 78 79 78 77 75 74 73 72 71 70 70 70 70 69 69 69 71 73 73 74 75 81 84 85 85 85 85 85 87 88 88 87 87 88 88 88 90 90 90 90 90 87 86 84 82 81 81 81 81 80 80 80 80 80 82 83 84 84 86 90 94 91 88 86
77 79 80 81 81 81 80 80 80 81 81 81 81 80 78 76 75 74 75 77 79 80 81 81 81 79 77 76 76 76 75 74 74 74 75 75 75 75 75 77 79 81 82 86 85 84 85 86 86 86 85 86 86 87 88 90 90 90 90 90 90 90 90 87 85 84 83 82 82 82 81 80 80 81 82 84 85 86 86 85 87 89 90 88 86 84
83 83 83 83 83 83 82 81 81 81 82 82 83 83 82 80 79 78 77 77 77 79 81 81 80 79 78 77 77 77 78 78 78 78 79 79 79 79 78 80 81 82 82 81 81 80 80 79 78 77 75 79 82 85 88 90 89 87 85 86 88 89 88 86 85 84 84 83 82 82 80 80 80 82 86 88 89 89 88 88 88 87 86 85 84 84
87 86 85 84 84 84 84 83 82 83 84 85 86 87 87 86 85 84 81 78 76 75 75 76 77 77 77 76 76 77 79 80 80 80 80 79 79 78 77 77 77 76 74 73 72 71 70 70 71 71 72 77 80 83 85 85 83 82 83 88 90 90 88 86 85 84 83 82 81 81 80 81 83 86 90 91 91 89 87 86 84 83 82 82 83 83
87 86 85 85 84 84 84 84 85 86 87 87 86 84 83 84 85 85 83 79 75 72 72 73 75 76 76 76 77 77 79 81 82 82 82 80 79 78 78 77 75 72 70 69 68 67 67 69 71 72 73 77 79 79 77 75 76 79 85 89 89 88 88 86 84 83 82 82 81 82 83 85 87 89 91 89 87 85 83 82 82 82 83 83 84 85
86 86 86 86 87 87 88 89 90 90 89 88 84 79 76 77 80 82 80 77 76 76 76 77 77 77 76 77 78 80 82 83 84 84 84 82 81 80 80 78 75 72 71 70 69 68 69 72 74 74 74 75 73 71 68 71 77 84 88 89 87 86 86 85 84 82 82 83 83 84 87 88 88 87 86 84 82 82 82 83 84 85 85 85 86 88
89 90 91 92 93 93 93 93 91 88 85 82 80 77 76 77 78 78 77 76 77 78 81 81 80 78 77 78 80 82 85 86 86 85 85 83 81 80 80 79 76 74 72 71 70 70 72 75 77 77 73 71 69 67 69 76 84 89 88 87 86 85 84 83 83 84 85 86 87 88 89 88 86 84 82 82 83 84 84 85 85 85 85 86 87 87
95 95 95 94 94 93 92 90 88 84 81 78 77 77 77 77 76 75 76 75 76 78 81 79 77 74 74 77 80 83 84 85 85 85 84 82 81 79 79 79 77 74 73 73 73 74 74 75 75 73 69 68 67 69 75 83 88 88 85 85 85 84 82 83 84 86 87 88 88 87 85 84 83 83 84 85 85 85 84 85 85 84 84 85 86 88
98 98 98 97 94 91 87 85 83 81 79 77 75 74 76 75 75 76 76 76 78 80 80 77 74 72 72 76 78 79 79 81 82 83 83 82 80 78 78 78 77 75 74 76 77 77 75 73 72 71 69 67 68 72 80 86 86 85 86 84 83 82 82 85 86 86 87 87 85 84 83 83 84 85 86 86 85 85 84 84 84 84 85 86 89 91
99 99 97 94 91 87 82 79 78 78 78 77 76 76 78 78 79 79 79 82 84 84 82 78 77 76 73 73 73 74 76 78 80 82 82 82 81 79 78 78 77 77 76 77 77 77 75 74 72 70 69 68 71 76 82 82 83 85 88 87 86 86 86 86 85 85 84 83 83 83 85 86 87 87 86 85 85 85 84 83 84 86 88 92 94 97
96 94 93 91 88 83 77 75 75 76 77 76 76 78 82 83 84 85 86 87 86 85 83 82 82 80 77 72 71 73 76 78 81 84 85 85 83 81 80 80 79 79 79 78 76 74 72 73 73 71 69 69 72 74 75 78 82 85 87 86 86 87 87 86 86 85 84 84 85 86 88 88 88 87 86 85 85 85 85 86 88 91 95 98 99 100
92 90 89 87 83 79 77 78 79 78 77 74 74 75 77 77 79 83 86 88 87 86 85 84 84 82 79 75 74 75 78 81 85 88 90 89 88 85 83 82 82 81 81 78 76 74 72 70 67 65 65 65 64 64 69 77 83 87 90 86 85 85 84 84 84 84 85 86 87 89 90 90 89 87 86 86 87 89 92 95 97 99 100 100 100 99
89 86 84 81 80 79 77 76 74 73 72 73 75 76 77 78 81 83 86 88 88 88 89 89 87 84 81 80 79 80 82 86 90 94 95 94 92 89 86 84 83 83 82 77 72 69 68 67 65 63 61 61 62 66 72 80 87 90 88 85 84 83 83 83 84 85 86 88 89 91 92 92 91 89 88 91 94 97 99 100 100 100 99 98 97 96
86 84 82 81 81 79 75 74 73 74 76 80 83 86 87 86 86 85 86 86 87 88 89 87 86 85 85 86 88 88 89 93 96 98 97 95 92 89 87 84 83 82 82 77 72 69 68 67 65 63 62 62 64 69 76 84 88 89 87 85 84 84 84 85 86 87 90 91 91 91 92 90 90 90 92 95 98 99 100 99 99 98 96 95 95 96
85 84 82 82 81 81 81 81 83 86 89 93 95 96 95 94 91 89 88 89 91 92 92 92 92 92 94 96 97 96 95 97 98 98 98 93 90 87 85 81 81 82 83 79 75 71 69 68 67 65 63 63 66 71 77 83 86 87 84 84 84 85 85 86 88 89 91 91 91 91 90 91 92 94 97 98 99 100 99 96 94 93 92 94 95 96
88 89 89 89 89 90 91 93 94 96 97 98 98 98 98 98 97 96 95 96 96 97 98 98 98 99 99 99 97 96 95 97 98 98 98 92 88 85 81 79 81 84 84 82 77 73 71 71 69 66 63 64 67 72 76 80 82 83 84 84 84 83 85 87 89 91 92 93 93 92 92 93 95 97 98 99 99 98 95 93 92 92 93 95 95 96
95 96 96 96 97 97 98 98 99 99 99 99 99 99 98 99 98 98 98 98 98 98 98 98 98 98 98 96 95 95 94 95 97 98 97 93 90 86 82 81 84 87 86 81 77 75 75 74 70 66 62 66 70 74 76 78 79 80 84 85 84 85 86 88 90 92 93 94 94 94 94 96 97 98 99 99 97 95 92 92 91 92 94 95 95 94
99 99 100 99 99 98 96 95 94 93 94 95 96 96 97 98 98 97 96 94 95 96 97 97 95 94 93 94 95 95 93 93 95 97 97 95 93 90 85 84 86 86 84 79 77 78 79 76 70 65 64 69 73 75 75 75 73 74 77 81 85 88 89 90 91 93 94 95 95 96 97 98 98 98 98 97 95 94 92 92 92 92 95 95 94 91
99 99 97 94 90 86 82 79 78 78 78 80 83 87 93 95 96 94 91 89 90 93 95 91 87 84 84 86 88 90 91 91 94 97 98 97 95 92 86 86 85 83 81 80 81 82 82 77 71 67 68 72 75 75 75 72 69 68 72 77 82 86 88 89 91 93 95 96 96 96 97 98 98 98 98 97 96 94 93 93 93 94 95 96 93 89
95 92 87 80 74 70 66 64 64 64 66 71 78 85 91 94 95 92 87 87 88 90 90 84 80 77 78 80 83 86 89 89 92 95 98 98 96 93 89 86 83 81 82 83 84 83 81 77 75 73 72 74 74 74 73 70 66 66 70 75 78 81 82 86 90 93 95 96 96 96 97 98 98 98 98 98 98 97 96 95 95 94 94 95 94 90
85 80 73 67 62 58 55 53 52 53 58 71 80 87 92 95 95 93 88 91 93 93 89 83 79 77 77 77 81 86 89 91 93 95 97 98 97 94 89 84 82 83 84 85 83 81 78 76 74 73 73 73 73 73 71 67 65 66 69 72 74 76 77 82 88 92 94 95 95 96 97 97 98 98 99 99 98 98 98 97 96 94 95 95 95 94
74 69 65 61 57 54 52 48 46 49 59 78 88 93 95 97 97 96 94 95 96 96 93 87 83 80 80 81 85 89 92 95 96 96 97 97 96 93 87 85 84 85 85 84 81 78 76 74 72 71 72 73 74 73 71 69 68 69 70 71 71 72 74 80 86 90 92 93 94 95 95 97 98 98 99 98 98 98 98 98 97 96 96 96 96 96
68 64 60 57 54 51 48 47 50 57 71 87 94 96 97 97 96 96 97 97 97 97 96 91 87 84 83 85 87 89 92 96 97 97 97 97 94 91 86 85 85 85 86 83 78 74 72 71 71 72 73 74 76 76 75 74 73 73 72 72 72 72 73 79 83 86 88 88 89 90 90 94 96 97 97 97 97 97 98 98 97 97 96 96 96 96
68 62 57 54 50 48 46 52 61 73 85 92 95 95 96 96 96 96 96 97 97 98 98 96 93 90 90 89 88 89 91 95 96 96 95 95 93 90 88 88 88 88 86 85 80 74 70 68 70 72 75 76 77 77 77 77 76 75 75 75 75 75 74 78 82 84 85 85 86 86 86 88 89 90 91 92 93 94 96 97 98 97 97 96 96 95
71 65 59 55 51 51 55 68 79 88 94 95 96 96 96 96 96 96 96 96 97 97 97 97 97 96 96 95 93 93 93 95 95 95 94 94 94 94 94 93 92 90 87 87 85 81 75 71 71 72 75 75 76 77 77 76 75 75 76 79 80 79 77 80 82 84 84 84 84 85 86 86 85 85 86 86 87 90 94 96 97 97 97 96 96 95
72 68 63 60 59 64 74 86 92 95 96 96 96 96 96 96 96 97 97 97 97 97 96 97 97 97 97 97 96 95 96 96 96 95 95 95 96 96 96 95 93 90 89 89 90 88 84 77 74 73 73 74 75 76 75 74 74 75 78 82 83 83 82 83 84 85 85 85 85 86 87 86 84 83 82 83 84 87 90 94 95 96 97 96 96 95
76 73 70 71 76 82 89 94 96 96 96 96 96 96 96 97 97 97 97 97 97 97 97 96 96 96 97 96 96 96 96 96 96 96 95 96 96 96 95 94 92 90 88 88 87 85 81 77 74 72 72 72 73 73 72 71 73 76 80 84 85 86 86 86 86 86 85 86 87 88 90 89 85 82 79 79 80 82 85 87 90 93 96 97 96 96
87 86 85 87 90 93 94 95 96 96 96 96 96 96 96 97 97 97 96 96 96 95 95 94 94 94 94 95 95 95 95 94 94 94 94 94 93 93 94 93 92 90 89 85 82 78 74 73 71 71 71 70 69 68 69 70 74 79 83 86 87 87 88 87 87 86 86 86 88 90 93 92 89 85 80 77 77 78 80 81 83 86 91 94 96 96
94 93 94 94 95 95 95 96 96 96 96 96 96 96 96 96 96 95 94 93 92 91 90 89 89 89 89 89 90 90 89 87 86 86 85 84 84 86 91 92 93 92 87 83 79 77 73 71 70 69 69 67 65 64 66 71 76 81 85 87 88 88 88 87 86 86 86 87 88 90 93 94 91 86 80 75 74 74 76 77 78 81 85 90 93 94
91 92 93 94 95 96 96 96 96 96 96 96 96 95 94 93 92 90 89 87 86 84 84 84 84 84 83 82 81 80 77 75 72 70 68 67 69 74 86 87 89 89 86 85 83 80 77 73 70 67 65 64 64 66 68 73 78 82 85 86 87 87 86 86 86 86 87 87 88 90 92 93 90 86 79 74 73 73 74 75 77 79 83 86 88 90
87 88 90 94 96 97 96 96 96 96 96 95 94 92 89 87 85 83 81 80 79 79 79 78 78 77 75 74 72 70 67 64 62 61 59 59 59 63 72 75 76 76 77 84 87 88 85 77 72 68 66 67 69 71 74 77 80 82 84 86 86 85 84 85 86 86 87 87 88 88 90 91 89 85 82 80 79 79 79 78 77 78 81 83 84 85
86 88 92 95 96 96 96 96 96 95 94 92 89 86 83 81 78 76 74 74 74 75 75 74 72 71 69 67 65 63 62 61 61 61 60 60 61 62 64 67 69 70 73 78 85 90 91 85 79 75 75 75 76 78 80 81 82 83 84 84 83 82 82 84 85 86 87 88 89 90 90 90 90 89 88 88 87 86 85 82 80 79 82 85 86 85
88 91 96 96 96 96 96 96 95 94 91 87 84 81 78 76 73 71 69 70 71 72 72 71 69 66 64 63 62 61 61 62 62 62 63 65 67 68 69 70 70 70 71 77 84 90 95 94 92 90 88 84 82 81 81 81 83 84 85 83 81 80 82 83 84 85 86 88 91 92 92 93 93 93 93 92 91 90 89 86 84 83 85 89 91 91
93 95 96 95 95 96 96 96 94 91 86 83 80 77 75 72 70 69 68 68 68 69 68 67 65 62 58 57 57 58 62 64 66 68 70 73 75 77 79 77 76 75 76 80 85 89 94 95 95 94 93 89 87 85 84 84 85 86 86 85 83 83 84 82 82 84 86 89 92 94 94 94 94 94 94 93 92 90 88 88 86 86 87 90 92 93
95 95 95 95 95 95 95 94 91 86 81 78 76 74 73 72 71 71 70 69 69 68 67 65 63 59 54 51 51 55 64 70 73 76 78 81 84 86 87 85 83 81 81 84 87 90 93 94 95 95 95 93 91 89 86 86 86 87 87 86 86 86 84 81 81 83 87 90 93 94 94 94 94 94 94 93 91 89 86 85 86 86 87 88 89 89
95 94 94 95 95 95 93 88 84 80 77 75 74 74 75 75 74 74 73 71 70 69 67 66 64 61 59 56 54 57 66 74 78 81 84 87 89 91 92 90 88 86 85 87 89 92 93 95 95 95 94 95 95 94 91 90 88 87 87 88 89 87 82 80 82 85 89 92 94 94 94 94 94 94 94 94 92 89 86 85 84 85 86 86 87 87
94 94 94 93 90 87 84 81 78 77 75 77 78 79 79 79 78 77 75 73 71 70 69 68 66 65 67 68 66 66 72 77 78 80 85 90 93 94 94 91 89 88 87 87 89 92 94 95 95 95 95 95 95 96 95 94 91 89 89 89 90 89 86 86 87 89 91 92 94 94 94 94 94 94 94 93 90 87 85 84 84 84 84 85 86 86
94 94 91 87 84 82 81 80 78 77 77 79 81 82 82 82 81 80 78 75 73 72 71 69 69 70 74 77 76 76 80 81 81 81 84 88 91 93 93 90 88 87 86 86 89 92 95 95 95 94 94 93 93 94 95 93 92 91 90 91 91 91 91 90 90 91 92 93 94 94 94 94 94 94 94 92 89 86 85 84 83 82 83 83 84 85
93 90 86 84 82 81 82 80 79 78 78 79 80 81 80 79 78 78 77 76 74 73 72 69 71 74 77 79 80 82 86 87 86 86 86 87 88 89 89 89 88 87 86 86 89 92 95 94 94 92 90 90 89 88 88 90 92 93 93 94 94 93 90 88 88 90 92 93 94 94 94 94 94 94 94 92 89 86 84 83 82 82 82 83 84 85
90 87 85 83 81 80 79 78 76 75 75 76 77 76 75 73 72 72 72 72 72 72 72 70 71 74 79 81 84 86 89 90 90 90 89 90 90 89 86 86 87 88 87 88 90 91 91 89 87 86 87 90 90 89 88 91 93 94 94 94 93 91 87 86 87 89 91 93 94 94 94 94 94 94 94 93 89 86 83 81 80 80 81 82 84 85
89 87 85 83 81 80 78 76 74 73 72 72 71 70 69 69 69 69 69 70 71 72 74 74 76 78 80 81 84 87 90 91 91 91 92 92 93 92 87 84 84 86 88 89 88 86 84 82 80 81 86 91 93 94 93 94 95 94 94 92 90 88 86 86 88 90 92 93 94 94 94 94 94 94 94 91 88 84 82 80 79 79 80 82 84 85
86 85 83 81 80 79 77 75 73 72 70 69 67 65 65 64 66 69 71 73 74 75 77 79 82 84 85 84 84 85 88 90 91 91 92 93 94 93 91 86 82 80 81 81 80 78 75 74 73 75 83 89 93 95 95 95 94 93 92 89 87 87 88 89 90 92 93 94 94 94 94 94 94 94 94 90 86 83 80 80 79 79 80 82 84 86
80 79 77 76 76 75 74 73 72 72 71 69 66 64 63 63 66 69 74 77 77 77 77 80 85 88 90 86 85 85 87 89 91 91 92 94 94 94 92 91 86 81 77 75 73 72 70 70 69 69 76 85 91 94 94 94 92 89 86 85 86 89 91 92 92 93 94 94 94 94 94 94 94 94 93 90 86 82 80 79 80 80 81 83 84 86
76 74 72 72 72 71 71 70 70 70 72 70 68 66 65 66 68 71 75 79 80 79 79 81 85 90 92 89 87 86 87 90 91 92 92 93 94 93 92 92 91 88 84 80 77 76 74 72 69 68 71 80 85 87 86 87 86 84 82 84 87 91 93 93 94 94 94 94 94 94 94 94 94 94 93 91 87 83 81 80 81 82 82 84 85 86
Wind_Speed
18 19 19 19 19 19 19 20 21 22 23 23 23 23 23 23 23 24 25 26 27 28 29 29 29 28 27 26 25 25 24 24 23 22 22 21 21 21 20 20 20 21 21 21 21 21 21 21 22 22 22 23 23 22 22 21 21 20 20 20 19 19 19 19 19 20 20 20 21 21 21 21 22 22 22 22 23 23 24 24 25 25 26 26 27 27
16 17 17 17 17 17 18 19 20 21 22 22 22 22 22 23 24 25 26 27 28 28 29 28 28 27 26 25 24 24 23 23 22 22 22 21 21 20 20 20 20 20 20 21 21 21 21 21 22 22 23 23 22 22 21 21 20 20 20 19 19 19 19 19 19 20 20 20 20 21 21 21 22 22 22 23 23 24 24 25 25 26 26 27 27 28
13 14 14 15 15 16 17 18 19 20 20 20 21 21 22 23 25 27 28 28 28 28 27 27 26 26 25 25 24 24 23 23 23 22 22 22 21 21 20 20 20 20 20 20 20 20 20 21 21 22 22 21 21 21 20 20 19 19 19 19 19 19 18 19 19 19 19 20 20 20 21 21 22 22 23 23 23 24 25 25 26 26 27 27 27 28
12 12 13 14 15 16 17 18 18 18 19 19 20 22 23 25 26 27 28 28 28 27 26 25 25 25 25 25 25 24 24 24 23 23 22 22 22 22 21 20 20 20 19 19 19 19 19 20 20 20 21 20 20 19 19 19 18 18 18 18 18 18 18 19 19 19 19 19 20 20 21 21 22 22 23 23 24 24 25 26 26 26 27 27 28 28
12 13 13 14 14 16 17 17 17 18 19 20 22 24 25 26 27 27 27 26 26 25 25 25 24 25 25 26 26 26 25 25 24 23 23 23 23 23 22 21 20 19 18 18 18 18 18 19 19 19 19 19 18 18 18 18 18 17 18 18 18 18 18 18 19 19 19 19 19 20 20 21 22 23 23 24 24 25 25 25 26 26 27 27 28 28
12 13 13 14 14 15 17 17 18 19 20 22 23 23 24 24 25 25 24 24 23 24 24 25 25 25 26 27 28 28 27 26 25 23 23 23 23 23 22 20 19 18 17 17 17 17 17 18 18 18 17 17 17 17 17 17 17 17 18 18 18 19 18 18 18 18 18 19 19 20 21 22 22 23 24 24 24 24 25 25 26 26 27 27 28 28
13 13 13 14 15 16 16 18 19 20 20 20 20 20 19 20 20 21 21 22 22 23 24 25 26 27 28 29 30 29 28 27 25 24 23 24 24 24 22 20 18 17 17 16 16 16 17 17 17 16 16 16 16 16 16 17 17 17 17 18 18 18 18 18 18 18 19 19 20 21 21 22 23 23 24 24 24 24 25 25 25 26 26 27 27 27
13 13 13 14 14 15 16 17 17 18 18 18 17 18 18 18 18 18 19 20 21 23 24 24 25 26 27 28 29 29 28 27 26 25 25 25 25 24 23 21 19 18 17 16 16 16 16 16 16 16 15 15 15 16 16 16 16 16 16 17 17 17 17 17 18 18 19 20 21 21 22 23 23 23 24 24 24 24 25 25 26 25 26 26 27 27
13 14 14 14 14 15 16 16 16 16 16 17 17 17 17 18 19 19 19 19 19 20 20 21 22 23 24 25 25 26 26 26 26 26 25 24 24 23 23 21 19 18 16 16 15 15 16 15 15 15 15 15 15 15 15 15 15 16 16 16 16 16 17 17 18 19 20 21 21 22 22 23 23 23 23 24 24 24 25 25 25 25 25 26 27 27
13 14 15 15 15 15 15 16 16 16 16 17 17 17 17 18 19 19 19 19 18 17 17 18 19 20 22 21 21 22 23 24 25 26 25 24 24 23 23 21 20 18 17 16 16 16 16 15 15 16 15 15 14 14 14 15 15 15 15 16 16 16 17 18 19 20 20 21 22 22 22 22 23 23 23 23 23 24 24 25 25 26 26 27 27 28
14 14 15 15 15 15 16 16 16 16 16 16 17 17 17 16 16 16 16 18 19 19 18 18 18 19 20 20 20 20 21 22 24 25 26 26 26 25 24 22 20 19 17 17 16 16 16 16 16 16 15 14 13 13 14 14 14 14 15 15 16 17 18 19 19 20 21 21 21 21 22 22 22 22 23 23 23 24 24 25 26 27 27 28 29 29
14 15 15 15 15 15 15 15 15 14 13 13 14 15 14 13 13 13 14 18 20 21 21 20 19 19 20 20 21 21 21 21 22 23 24 25 25 25 24 22 20 18 17 16 16 16 16 16 16 15 14 13 13 12 13 13 13 14 15 16 17 18 18 19 20 20 20 20 20 21 21 21 22 22 22 23 24 24 25 26 27 27 28 29 29 29
15 15 15 15 15 14 14 13 12 11 10 10 11 14 15 15 13 14 17 20 21 21 21 21 20 20 20 21 22 22 21 20 20 21 21 22 22 22 21 20 18 17 17 17 17 17 17 16 15 14 13 12 12 12 12 13 13 14 15 16 17 18 19 19 19 19 19 20 20 20 20 21 22 22 23 24 25 25 26 27 27 28 28 28 28 29
15 15 14 13 13 12 11 10 9 9 10 11 12 14 16 17 17 17 20 21 21 20 20 21 21 20 20 21 22 22 21 19 19 19 19 20 20 20 19 18 17 17 17 18 18 18 17 16 14 13 12 12 12 12 12 13 14 15 16 17 18 18 18 18 18 18 19 19 19 20 20 21 22 22 23 24 25 26 26 26 27 27 27 28 28 28
14 13 12 11 11 10 9 9 9 11 13 15 15 16 17 17 18 19 19 20 20 20 19 19 20 20 19 18 18 18 17 16 16 16 17 19 20 20 18 17 17 16 17 17 17 17 17 15 14 13 12 12 11 12 13 14 15 16 17 17 18 18 18 18 18 18 18 19 19 20 20 21 22 23 24 25 25 25 26 26 26 26 27 27 27 28
11 10 9 9 9 10 10 11 12 13 15 17 18 18 18 19 19 18 19 19 19 18 17 17 17 18 18 16 15 15 15 14 14 15 16 18 19 19 17 16 15 15 16 15 16 16 16 14 13 12 12 12 12 13 13 14 15 16 17 17 17 17 17 17 17 18 18 19 20 20 21 22 23 23 24 24 24 24 24 25 25 26 26 27 28 29
9 9 9 9 10 12 14 15 15 14 16 17 19 19 19 19 19 19 18 18 17 16 15 15 13 12 12 14 13 12 13 13 13 14 16 17 18 18 16 14 14 14 16 16 16 15 14 13 12 12 12 12 12 13 14 15 15 16 16 16 16 16 17 17 18 18 19 19 20 21 21 22 23 23 23 23 23 23 24 24 25 26 27 28 29 29
9 10 10 11 12 15 17 17 17 16 17 18 19 18 17 17 17 17 17 17 16 16 15 14 13 10 9 11 13 13 14 14 14 14 14 15 16 17 16 15 14 15 16 17 16 14 13 12 11 11 12 12 13 14 14 15 15 15 15 16 16 16 17 17 18 18 19 20 20 21 21 22 22 22 22 22 22 23 23 24 25 27 27 28 27 27
12 12 12 13 15 17 16 16 16 17 18 19 19 18 18 18 18 17 17 17 17 17 16 15 14 14 14 14 15 16 16 15 14 13 13 13 15 16 16 15 14 15 15 15 14 12 12 12 11 11 11 12 13 13 14 14 14 14 15 15 15 16 17 17 18 19 19 20 20 21 21 21 21 21 21 21 22 23 24 25 25 25 25 24 24 25
14 14 14 15 16 17 18 18 19 20 20 20 19 19 19 19 19 18 18 18 18 18 17 16 15 16 16 16 16 17 17 16 14 13 12 12 13 14 15 14 13 13 14 14 13 12 12 11 11 11 11 12 13 13 13 13 13 14 14 14 15 16 17 18 18 19 19 20 20 20 20 20 20 20 20 21 22 23 23 23 23 23 22 22 23 24
15 16 16 16 16 18 20 21 21 21 21 21 20 19 19 19 20 20 20 19 18 18 18 18 18 17 17 15 14 15 16 15 13 11 10 10 10 11 12 13 12 12 13 13 13 12 11 11 11 11 12 12 13 12 12 12 12 13 14 15 16 17 17 18 18 18 19 19 19 19 19 19 19 19 20 21 22 22 21 21 21 21 22 22 22 23
17 17 18 18 18 19 21 22 22 22 22 21 20 19 19 19 20 20 20 19 18 18 19 19 18 18 17 16 16 17 19 18 15 12 9 8 8 9 12 12 11 10 11 12 12 12 11 11 11 12 12 12 12 11 10 11 11 12 14 15 16 17 17 17 18 18 18 19 19 19 18 18 19 19 20 21 21 21 21 21 21 21 22 22 22 22
18 19 19 20 20 21 21 22 22 22 21 21 20 20 20 20 20 21 20 19 18 18 18 17 17 16 16 17 19 20 21 20 17 14 10 7 6 8 11 10 10 10 10 11 12 12 11 11 12 12 12 11 10 8 9 9 11 13 14 15 16 17 17 17 18 18 18 18 18 18 17 18 19 19 20 20 20 20 20 21 21 22 22 22 22 21
17 18 19 19 19 19 19 19 19 18 19 19 19 19 19 19 20 20 19 17 16 16 16 15 15 14 14 15 17 18 19 18 16 14 10 7 7 8 10 10 9 9 9 11 11 12 12 12 13 13 12 10 8 7 8 10 12 13 15 16 16 16 16 17 17 18 18 17 17 17 17 18 19 20 20 19 19 19 20 21 21 22 22 22 21 21
15 16 16 17 16 16 17 17 17 18 19 19 19 19 18 17 16 15 15 14 14 13 13 13 12 11 11 10 11 13 16 16 14 13 11 7 7 8 10 9 8 8 8 10 11 11 12 13 14 13 10 8 7 8 9 11 13 15 15 16 16 16 16 17 17 17 17 17 16 17 17 18 19 19 19 19 19 19 19 20 21 21 22 21 21 21
14 14 15 16 17 18 19 20 21 21 21 21 20 20 19 18 16 15 15 14 12 11 10 10 10 10 10 10 9 11 14 15 14 13 12 8 7 7 8 8 7 7 8 10 11 11 12 13 13 12 10 8 8 9 10 12 14 15 15 15 15 16 16 17 17 17 17 16 16 17 17 17 18 18 19 18 18 19 19 20 21 21 21 21 21 21
13 14 16 17 19 21 22 22 23 23 23 22 20 20 19 18 18 17 16 13 12 11 10 10 9 10 10 10 10 11 13 15 14 13 13 11 8 6 6 6 6 7 8 10 11 12 12 12 11 11 9 8 9 10 12 14 15 15 14 15 15 16 17 17 16 16 16 16 16 16 16 17 17 17 18 18 18 19 19 20 21 21 21 20 20 20
14 15 17 19 20 22 23 24 25 25 23 21 19 18 17 16 16 15 14 13 12 11 10 10 9 8 9 10 11 12 15 15 14 14 13 11 7 4 5 5 5 6 7 9 11 12 12 10 10 9 9 9 11 13 14 15 15 15 15 15 16 17 17 17 16 15 15 15 15 16 16 16 16 17 17 17 18 18 19 20 21 21 20 19 18 19
17 19 20 21 22 23 24 25 26 26 23 20 17 15 14 13 12 12 13 13 11 10 10 10 10 9 10 11 12 13 13 13 13 13 12 10 6 4 4 4 4 5 6 9 10 11 10 8 8 8 9 10 12 14 16 16 15 15 16 17 18 18 17 16 15 14 14 15 15 16 16 16 16 17 17 17 17 18 19 20 20 20 19 18 18 18
23 23 23 23 23 23 24 25 25 24 21 17 14 13 12 12 11 11 12 11 10 9 9 9 10 11 11 11 11 9 7 7 8 9 9 7 4 3 3 3 3 4 5 7 7 7 6 6 6 7 9 11 12 14 15 15 15 15 17 18 19 18 17 16 15 15 15 15 16 16 16 16 16 17 17 17 17 17 18 19 19 19 18 18 17 17
25 25 24 24 24 24 24 23 22 19 17 15 13 12 11 11 10 10 10 9 9 8 8 9 9 10 10 8 5 3 2 4 1 4 4 5 3 3 3 3 3 4 5 5 4 3 4 5 6 8 9 10 11 12 13 13 13 15 17 18 19 18 18 16 15 15 16 16 16 17 17 17 17 16 16 16 16 16 16 18 18 18 18 17 17 17
23 23 23 23 23 22 21 19 18 16 15 14 13 12 10 9 8 8 7 7 7 7 7 8 8 7 7 5 3 2 3 5 4 2 1 3 3 4 3 2 3 4 6 5 5 4 3 5 7 9 10 10 11 11 12 12 13 15 16 17 17 17 17 16 15 15 16 17 17 18 18 18 17 17 16 16 15 15 16 17 18 18 17 17 16 16
21 21 21 21 20 18 17 16 15 15 14 14 12 10 9 8 8 7 7 6 5 5 5 5 5 5 5 4 5 5 6 6 4 3 2 2 3 3 4 3 4 5 6 6 6 6 6 7 9 11 11 11 11 11 11 12 13 14 15 15 15 15 16 16 15 15 16 17 18 18 18 19 18 18 17 16 16 16 16 17 17 17 16 16 15 16
18 18 17 16 16 15 14 14 14 14 14 12 10 9 9 9 9 9 9 9 8 8 8 8 8 8 7 6 6 7 8 6 5 3 3 3 4 4 5 5 5 5 6 5 6 7 7 9 10 10 11 11 11 10 10 12 13 14 15 14 13 13 14 14 15 15 16 17 18 18 18 19 20 19 19 18 17 17 17 17 16 16 15 14 15 15
16 15 14 14 13 12 12 11 11 11 11 10 9 9 10 11 11 11 11 11 11 11 11 11 11 10 10 8 6 6 8 7 5 4 4 4 5 5 5 5 5 6 6 6 6 7 7 9 9 10 10 11 11 10 9 11 12 13 13 13 12 12 12 13 14 15 16 16 17 17 18 19 19 20 20 19 19 18 17 17 16 15 14 13 13 14
12 12 12 12 12 11 10 10 10 10 10 10 11 12 12 12 12 12 12 12 11 11 11 11 10 10 10 9 9 8 8 7 7 6 5 5 5 5 5 5 5 5 6 6 7 7 7 8 9 10 10 9 9 10 10 10 11 11 12 12 12 11 12 12 13 14 15 15 16 17 17 18 19 19 20 20 19 19 18 17 16 15 15 14 14 14
11 11 11 12 12 11 10 10 10 10 11 13 13 13 13 13 13 13 12 12 12 11 11 11 11 10 10 9 9 8 8 7 7 7 7 6 6 5 4 5 5 6 6 6 7 7 8 8 9 9 9 8 8 9 11 12 12 11 11 11 11 11 11 12 12 13 14 15 16 17 17 18 18 19 20 20 20 19 18 18 17 17 17 16 16 16
10 11 11 11 11 10 9 10 10 12 14 15 15 14 14 14 13 13 13 12 12 11 11 11 11 11 10 10 9 8 7 7 7 7 7 7 6 6 5 6 7 7 7 7 7 7 7 7 7 7 7 8 9 10 11 12 12 12 12 12 11 11 11 12 12 13 14 15 17 18 18 18 18 19 19 19 19 19 19 18 18 18 18 19 19 18
10 10 10 9 9 9 10 11 12 14 15 15 15 14 14 14 14 13 13 12 11 11 10 10 10 10 10 9 9 8 8 7 7 7 7 7 7 6 6 6 7 8 8 9 9 8 7 7 7 7 7 8 9 10 10 11 11 12 12 13 12 12 12 12 13 13 14 16 17 18 18 18 18 18 18 17 17 17 18 19 19 19 19 20 20 20
10 9 8 8 9 10 11 12 13 14 15 14 14 14 14 14 13 12 12 11 10 10 9 8 8 8 8 8 8 8 8 8 8 8 7 7 7 6 6 6 7 8 9 9 9 8 7 6 6 7 7 8 8 9 10 10 11 12 13 13 12 13 13 14 14 14 15 16 17 17 17 17 17 17 16 16 16 16 16 17 18 19 19 19 18 19
9 8 9 10 11 12 13 14 14 14 14 13 13 13 13 13 12 11 11 10 9 9 8 8 8 8 8 8 8 9 8 8 8 8 7 7 6 6 6 6 7 8 9 9 9 9 7 6 6 7 7 8 8 9 10 10 11 11 12 11 12 13 14 14 14 14 16 17 16 16 16 17 17 17 16 16 16 16 16 17 18 18 18 18 17 17
9 10 12 14 14 15 15 15 14 13 12 13 13 13 13 12 12 11 11 10 10 10 10 10 10 11 11 11 10 10 9 8 8 8 8 7 7 6 6 6 7 8 8 8 9 8 8 7 6 6 7 7 8 8 9 10 11 11 10 11 13 14 14 14 14 15 16 16 16 16 16 17 17 17 17 17 17 17 17 17 18 18 18 18 17 18
12 13 15 16 16 16 15 14 13 12 12 13 13 13 13 12 12 11 11 11 11 11 11 12 12 13 14 14 14 13 11 10 8 8 9 9 8 7 6 6 6 7 8 8 8 8 7 6 6 6 7 8 8 8 9 10 10 10 10 11 12 13 12 14 16 17 17 16 16 16 16 17 17 17 17 17 17 17 18 18 18 18 18 18 18 18
14 15 15 15 15 14 13 13 13 12 13 13 14 13 13 12 11 11 11 11 12 12 13 13 13 14 14 15 15 16 15 12 11 10 10 10 10 8 7 6 6 7 7 7 7 7 6 6 7 8 9 8 8 8 8 8 9 10 10 11 12 11 12 14 16 18 17 16 16 16 16 17 17 17 17 17 17 18 18 18 18 18 17 17 18 19
15 15 15 14 14 14 14 14 13 13 13 13 13 13 13 12 12 12 12 12 13 13 14 14 14 12 11 12 14 16 17 16 15 15 14 13 11 9 7 6 6 6 6 6 7 7 6 7 7 8 9 8 8 7 7 8 9 10 12 13 13 13 14 15 16 15 15 15 15 16 17 17 17 17 17 17 17 17 17 18 18 18 17 18 19 19
15 15 15 15 15 14 14 14 14 13 14 13 13 13 13 13 13 13 13 13 13 14 14 15 14 12 10 11 13 15 15 15 17 18 18 18 16 13 10 7 5 5 5 5 6 6 6 6 7 8 9 9 9 9 9 11 12 12 13 15 15 15 16 15 14 14 14 14 15 17 18 18 17 15 15 16 17 17 17 17 17 17 17 18 19 20
14 14 14 14 14 14 14 14 14 14 14 14 14 14 14 14 14 14 14 14 14 14 14 14 14 13 12 12 13 13 12 12 14 16 18 19 19 18 16 11 7 5 4 4 5 5 5 6 6 7 8 8 8 10 12 14 15 14 14 15 16 16 14 14 14 14 14 14 16 17 19 18 16 14 14 15 16 17 17 17 17 17 17 18 19 20
13 13 13 13 13 13 14 14 14 14 14 14 14 14 14 14 14 15 15 14 14 14 15 15 14 13 12 13 14 13 12 11 12 14 15 17 18 19 20 17 12 7 4 4 4 4 5 5 6 7 8 8 8 9 11 13 14 15 16 16 16 15 14 14 14 14 15 15 17 18 18 17 15 14 14 15 16 17 17 17 17 17 18 19 20 20
14 13 13 13 13 13 13 14 14 14 14 14 15 14 15 15 14 14 14 14 15 15 16 16 14 12 12 13 13 14 14 13 13 13 13 15 16 17 18 19 16 12 8 6 5 5 5 5 6 7 8 9 9 10 11 11 13 15 16 16 15 13 12 13 14 15 16 17 18 18 17 16 15 14 14 14 15 16 17 17 17 18 19 19 20 20
14 14 13 13 13 13 13 14 14 14 14 15 15 15 16 16 15 15 15 15 16 16 17 17 16 13 11 12 13 14 14 14 13 12 12 13 14 15 15 17 17 15 12 10 9 8 7 6 7 8 9 9 10 10 11 12 13 14 14 14 13 13 12 12 13 15 17 17 18 18 17 16 15 14 13 14 15 16 17 17 17 18 19 20 20 20
14 15 15 15 15 15 15 15 15 15 15 15 16 17 17 17 17 17 17 17 17 17 18 18 17 14 11 12 13 14 14 13 12 11 12 13 14 14 13 14 14 14 12 11 10 9 8 7 6 6 7 8 9 10 11 12 13 13 12 12 13 12 11 11 13 16 17 18 17 17 16 16 14 13 13 13 14 16 17 17 18 19 20 21 21 21
Wind_Direction
266 269 270 271 273 275 277 280 283 286 289 291 292 292 291 290 290 291 294 296 297 299 301 302 303 303 303 301 300 299 299 299 300 300 301 302 301 299 297 295 293 291 291 290 289 290 290 292 295 298 299 299 298 296 295 293 292 292 292 293 294 295 297 300 302 303 303 301 300 298 298 298 299 299 300 301 301 301 301 300 299 298 297 296 295 294
266 267 268 270 272 274 276 279 282 285 287 289 290 290 289 289 290 292 295 297 298 300 301 302 303 304 303 302 302 301 301 301 301 302 303 304 303 301 299 296 294 292 291 290 289 290 291 293 296 298 298 298 297 295 293 292 291 291 291 291 292 294 297 300 300 300 300 299 298 297 298 298 298 299 300 301 301 300 299 298 297 296 295 294 294 294
265 267 268 270 272 274 277 280 283 285 286 286 286 286 286 287 289 292 295 297 298 300 301 303 304 304 304 303 303 302 302 302 302 303 305 305 304 302 300 297 294 292 291 289 289 290 292 294 296 298 298 299 298 296 293 292 291 290 291 292 293 296 298 299 299 299 299 298 298 298 298 298 299 299 300 300 299 299 298 297 296 296 295 294 294 294
264 266 268 271 274 275 277 281 283 285 284 283 282 283 284 286 288 290 293 295 297 299 301 302 302 303 303 302 302 302 302 302 303 304 305 305 305 303 300 297 294 292 291 289 289 291 294 295 297 298 299 299 299 298 296 294 293 293 294 295 297 299 300 300 300 300 298 298 298 298 298 299 299 299 299 298 298 298 298 297 297 296 296 296 295 294
262 264 267 271 274 276 278 280 281 281 280 280 281 283 285 286 287 290 292 294 296 298 300 300 300 300 300 300 300 300 301 301 302 302 303 304 304 304 302 298 295 292 290 290 291 293 296 297 298 299 299 299 300 301 302 301 300 300 299 300 300 301 301 300 299 298 298 298 298 298 299 299 299 299 298 298 298 298 298 298 297 297 297 296 296 295
262 264 268 271 273 276 278 279 278 279 281 282 284 285 285 286 287 288 290 292 293 295 296 297 297 297 298 298 298 299 300 300 300 300 300 301 303 304 304 302 298 295 292 292 293 295 297 299 300 300 300 300 300 302 305 306 306 305 303 302 301 300 299 299 299 298 297 297 298 299 299 300 299 299 299 299 299 299 299 299 298 298 297 297 297 297
267 268 271 273 275 277 279 279 279 280 281 284 286 287 286 286 286 287 287 288 290 292 293 293 294 296 297 297 298 299 300 300 299 298 298 299 302 305 306 306 303 300 298 297 297 297 298 299 301 301 301 301 301 302 303 304 304 304 303 302 300 299 299 299 298 298 297 298 299 300 300 300 300 299 299 299 299 299 299 299 298 298 299 299 299 300
273 275 275 277 280 281 281 280 280 280 280 282 284 286 287 287 288 288 288 288 289 290 290 292 293 295 296 297 298 298 299 300 300 299 298 299 302 305 307 307 305 302 300 298 297 297 298 300 301 302 302 302 302 302 301 302 301 301 302 302 301 301 300 300 299 299 299 299 300 300 300 301 300 300 300 299 299 300 299 299 299 301 302 302 301 301
274 279 280 279 280 283 284 283 281 279 278 277 278 281 286 290 292 294 293 291 289 288 288 289 291 293 294 295 295 296 297 299 299 299 298 298 299 302 305 305 302 299 296 294 294 296 298 300 301 301 302 302 302 302 303 303 303 303 303 303 303 303 303 302 301 301 300 301 301 301 301 301 301 300 300 300 300 300 300 301 302 303 304 303 302 301
271 276 280 280 278 277 280 283 283 280 277 275 274 274 278 285 291 294 295 293 292 290 288 287 289 291 292 292 292 293 295 297 298 298 297 296 296 297 299 298 296 293 291 291 293 296 297 298 299 300 301 303 303 303 304 304 304 304 305 305 305 306 305 304 303 302 302 302 302 302 301 301 301 301 301 301 302 302 304 304 305 305 304 303 302 300
272 274 277 279 278 276 274 276 279 279 277 277 276 275 274 275 280 286 289 293 295 296 293 290 288 289 291 291 292 292 293 294 296 297 298 298 297 297 297 296 293 291 291 293 295 297 298 299 300 302 304 304 304 303 303 304 306 308 309 309 309 309 307 305 304 304 304 304 303 303 302 302 302 302 303 304 305 307 307 306 305 304 303 302 301 299
274 276 276 276 276 275 273 274 275 277 277 278 282 285 282 277 276 278 283 291 296 298 296 292 289 287 287 289 290 291 291 291 292 294 296 298 298 299 298 297 295 293 294 296 299 301 301 302 304 305 306 305 305 305 306 309 313 315 314 312 311 310 309 308 307 306 306 305 304 303 303 303 303 304 305 307 307 307 306 305 304 303 302 301 300 299
274 274 274 272 272 272 273 274 277 278 277 278 285 291 294 294 289 287 289 291 293 295 294 293 291 288 287 287 288 288 288 287 288 289 291 294 296 297 296 296 296 296 297 300 302 304 305 306 307 307 307 307 308 310 314 317 319 318 314 312 311 311 311 311 309 308 307 306 305 305 304 305 305 306 308 307 307 306 305 304 303 303 302 301 300 299
271 271 270 269 269 269 270 273 278 282 284 287 289 292 295 297 296 294 293 291 291 291 291 290 290 290 289 287 287 286 285 285 285 286 286 289 292 293 292 293 294 296 299 301 303 305 307 308 307 307 308 310 313 317 321 322 319 315 313 313 313 313 312 312 311 309 309 308 308 308 308 309 309 309 308 307 307 306 305 304 304 303 303 302 301 300
267 267 267 267 268 270 275 281 286 288 290 293 294 294 295 295 295 294 292 291 291 291 290 290 291 291 290 287 285 284 282 279 279 280 282 286 289 291 290 290 292 295 298 299 301 304 308 309 308 309 312 315 319 323 323 320 316 314 314 314 315 314 314 313 312 312 311 312 312 312 311 311 310 309 308 308 307 306 306 306 305 305 304 303 302 300
264 265 268 273 277 281 287 291 291 291 293 295 295 294 293 293 292 291 289 288 289 290 291 292 293 293 291 288 287 287 284 276 272 274 278 281 285 288 286 287 290 293 296 297 299 303 308 311 312 314 317 320 323 324 322 318 315 315 316 316 316 316 316 315 315 315 315 315 314 313 312 311 310 309 309 308 308 308 308 307 307 306 305 303 302 300
267 270 275 281 284 288 292 294 293 292 294 295 294 292 288 287 287 286 284 284 285 287 288 288 288 290 291 291 291 291 290 283 278 275 276 276 279 282 281 282 286 290 294 296 299 303 308 311 314 317 319 321 322 321 319 317 316 317 318 317 318 318 318 317 317 317 316 314 313 312 312 311 311 310 310 310 309 309 309 309 308 306 305 304 304 305
279 280 284 286 288 292 295 296 296 295 294 293 291 288 283 282 281 280 279 279 279 280 280 278 276 277 284 289 290 289 288 286 282 277 272 270 273 275 275 278 283 289 293 296 300 304 310 313 314 316 318 319 320 319 318 318 318 318 318 318 319 319 320 320 319 317 316 315 314 313 313 312 312 312 312 311 311 311 310 309 307 307 307 309 313 318
293 291 292 294 295 296 298 297 297 295 292 291 289 286 283 282 279 276 274 273 273 273 273 272 270 271 274 278 282 284 284 281 275 269 262 262 265 269 272 276 282 287 291 295 300 306 313 315 314 314 315 317 319 319 319 319 319 318 319 319 320 320 321 320 319 317 316 315 315 314 314 313 313 313 313 312 312 311 310 310 310 312 316 321 327 331
298 295 294 296 298 299 297 294 293 292 290 288 286 283 281 280 278 275 272 271 270 269 266 266 266 267 268 272 278 282 282 279 271 261 256 256 260 264 269 275 281 285 289 294 301 310 315 314 312 311 313 317 319 320 319 318 318 318 320 321 321 321 321 320 318 318 317 316 316 316 316 315 315 315 314 314 313 314 315 318 322 325 330 333 334 334
297 295 294 296 297 296 293 291 290 288 287 286 283 279 276 275 274 273 272 271 268 266 265 264 264 265 266 268 274 280 282 279 268 254 253 254 256 260 267 275 281 284 287 293 302 312 315 312 310 310 313 317 318 318 317 316 317 319 321 322 322 322 322 320 319 319 319 319 318 318 317 317 317 317 316 317 319 322 327 332 336 338 337 335 334 333
297 295 295 294 291 288 286 286 286 286 286 285 281 277 273 272 272 272 272 270 269 268 269 268 269 269 268 267 271 277 280 278 266 253 252 256 257 261 270 278 282 282 282 289 300 310 313 309 307 309 313 316 316 315 314 315 318 321 323 324 324 324 323 322 321 321 321 320 319 319 318 318 318 318 320 322 327 334 340 341 341 338 337 335 334 333
298 295 295 294 290 285 283 284 286 290 292 290 285 280 278 276 274 274 275 275 277 279 281 283 283 281 279 278 278 280 282 279 268 255 248 253 259 265 273 280 283 280 279 286 298 308 310 307 307 310 313 314 315 313 312 314 319 322 325 325 325 325 324 324 323 323 322 321 321 320 320 320 321 322 325 329 334 339 341 340 338 337 336 335 334 334
299 298 297 297 296 294 294 297 302 307 311 310 307 302 297 293 288 284 284 286 290 295 298 300 297 293 289 289 287 286 285 281 269 252 239 245 256 264 273 279 279 275 278 289 299 307 308 308 308 311 313 315 314 311 309 313 318 323 326 327 327 327 326 326 325 325 324 323 322 322 323 323 325 327 330 334 337 337 337 337 336 335 335 335 333 332
305 306 308 311 313 315 319 323 324 323 321 321 321 321 320 315 310 307 307 306 306 307 307 305 299 293 289 287 284 283 285 285 269 246 230 237 251 260 269 274 275 274 279 292 301 307 308 309 310 312 314 316 313 308 308 313 319 324 328 329 330 329 329 328 327 327 326 325 325 325 325 327 329 331 333 335 335 335 335 335 335 335 335 333 331 331
310 313 317 320 321 321 322 321 320 318 316 316 314 313 312 310 309 308 307 307 307 305 304 301 297 295 295 292 286 281 281 283 270 247 229 229 241 256 265 270 275 280 286 296 303 307 309 308 308 309 312 313 309 305 308 314 321 327 331 333 333 332 331 331 330 330 329 328 328 327 328 328 330 332 334 335 335 334 334 335 336 335 334 332 331 331
310 311 313 314 315 317 318 317 317 316 315 313 312 309 307 304 302 301 299 298 300 302 301 301 300 300 300 297 289 282 279 278 267 248 232 226 231 248 259 269 278 288 294 301 305 306 306 301 298 299 303 306 305 304 309 317 325 332 337 338 337 336 335 335 334 332 331 330 329 329 328 329 330 331 333 333 334 335 335 336 336 335 334 331 331 331
310 312 314 315 316 317 317 317 317 316 316 316 314 311 307 303 300 298 296 297 299 299 297 295 296 298 299 297 292 285 278 271 260 245 229 219 219 239 256 272 287 298 305 308 308 306 302 292 288 290 296 302 304 307 313 323 332 340 342 341 340 339 339 339 338 335 332 331 330 329 329 329 329 330 330 331 332 334 335 336 336 335 333 331 330 330
314 315 316 317 317 316 316 315 316 316 317 318 317 313 308 302 298 295 293 295 296 294 291 290 291 294 295 296 295 289 278 264 252 239 221 209 211 237 259 281 296 307 316 316 313 307 298 286 283 289 297 303 308 313 320 330 339 344 344 341 340 341 342 342 340 337 335 333 332 331 331 330 329 329 328 329 330 332 334 336 336 335 333 331 329 328
318 318 317 317 316 315 314 315 316 318 320 321 321 317 311 304 298 293 292 293 292 289 287 289 291 294 297 298 296 292 286 273 248 226 210 202 211 249 275 289 299 312 327 326 320 311 298 290 288 293 300 307 312 317 324 332 339 342 341 339 339 341 343 344 342 339 337 336 335 334 333 332 331 330 328 328 329 332 334 336 336 335 332 329 327 326
318 317 316 314 313 313 315 318 321 325 328 329 328 325 320 314 308 303 300 297 293 287 287 289 293 297 301 303 302 306 337 356 330 190 193 203 228 276 289 293 300 311 323 328 323 312 307 304 302 303 308 311 314 318 324 330 334 336 337 337 338 340 344 345 343 340 339 338 337 337 337 335 335 334 332 332 333 334 334 335 335 334 331 328 325 323
317 316 314 313 313 315 320 327 334 339 340 341 340 339 338 336 334 329 323 316 308 299 293 294 300 307 314 319 336 22 35 33 51 97 182 226 249 274 288 300 311 315 313 308 296 289 299 307 309 310 312 313 313 316 322 328 332 334 334 335 336 339 343 344 342 339 338 338 338 338 339 339 340 341 341 340 340 338 336 335 334 333 331 327 324 322
318 316 315 315 318 324 332 340 345 347 348 348 351 356 2 6 8 7 6 2 358 351 341 338 341 348 0 23 42 49 47 46 44 30 339 280 280 298 313 320 318 312 304 292 284 282 290 298 305 308 310 310 311 314 320 327 331 333 333 334 335 337 341 342 341 339 338 337 337 338 339 341 343 345 346 346 344 342 338 334 333 332 330 327 324 322
325 325 324 326 331 336 341 343 345 347 350 355 5 19 30 34 37 39 41 43 44 45 45 47 45 41 40 45 50 50 45 44 39 22 351 329 323 323 323 317 308 301 298 293 292 293 293 294 299 304 308 310 311 314 319 326 330 331 332 334 335 336 338 340 339 338 337 336 336 337 337 339 342 345 346 346 345 342 339 336 334 332 330 328 325 323
335 335 336 339 340 341 342 342 345 351 359 13 34 50 54 53 53 54 55 55 55 54 53 52 52 52 52 52 50 45 37 32 26 10 348 341 332 323 316 306 300 299 298 297 298 299 297 296 298 303 306 310 314 317 321 327 329 330 331 334 335 335 335 337 336 336 335 335 335 335 335 336 338 340 342 343 343 341 339 338 338 337 336 332 329 326
336 336 339 341 342 342 343 347 354 6 25 49 64 68 64 59 56 54 53 52 51 51 51 50 50 51 51 51 52 48 35 23 12 1 352 344 336 327 315 301 299 300 300 298 297 298 299 300 302 304 307 310 315 320 324 327 329 331 332 334 335 334 334 334 335 335 334 333 333 333 332 332 333 335 337 340 342 341 340 340 341 342 342 339 337 333
334 334 337 341 344 346 350 360 14 36 59 71 74 69 62 57 52 49 47 45 44 45 48 49 51 51 50 48 46 42 32 19 8 1 354 346 338 329 315 302 298 297 294 292 293 295 299 302 305 308 310 313 317 320 323 327 328 330 331 332 332 332 332 333 334 335 334 333 332 331 330 330 330 332 335 339 341 342 341 341 342 344 344 343 342 340
335 335 337 343 350 358 10 25 45 65 75 75 70 63 57 52 48 45 43 41 41 42 45 48 50 51 50 46 42 35 25 14 5 357 349 342 334 324 313 300 294 290 285 284 284 287 293 299 305 310 314 316 316 317 320 323 325 327 328 329 330 331 332 333 334 334 334 333 332 331 331 330 331 333 335 338 339 340 338 339 341 343 344 344 343 342
337 338 342 352 7 23 38 53 69 78 77 71 64 57 53 49 46 43 42 41 41 42 44 46 47 46 43 39 33 24 15 5 357 350 343 336 328 319 309 300 294 291 290 287 283 281 284 291 299 305 311 313 315 316 318 321 322 324 326 328 330 332 333 334 334 334 334 334 333 332 332 332 333 334 334 335 335 334 333 334 337 341 343 342 340 339
341 348 2 20 37 49 60 73 81 80 73 65 58 53 49 47 45 43 42 42 43 42 41 40 37 34 31 27 23 16 7 359 352 345 340 333 325 316 307 299 294 292 292 289 286 283 283 283 288 294 299 303 307 312 315 317 320 323 327 329 330 331 331 332 332 332 333 335 334 333 333 333 333 332 331 331 329 328 328 330 334 338 341 339 335 334
359 18 37 54 62 68 76 84 84 77 68 61 55 50 46 43 41 39 38 38 39 37 32 23 16 12 14 19 22 19 11 3 356 349 344 338 330 321 311 301 296 294 292 291 291 293 293 287 286 290 293 296 301 306 309 312 317 322 327 329 327 325 325 327 330 332 334 335 335 335 334 334 333 331 330 328 327 327 328 329 331 335 338 337 334 332
30 47 58 66 71 77 83 84 80 72 63 55 49 45 41 37 34 32 30 30 29 26 19 12 6 5 8 15 21 24 21 14 6 360 354 349 341 333 322 311 301 295 294 297 302 305 304 297 289 287 291 296 300 304 308 312 317 322 327 329 328 327 326 327 330 333 334 335 336 337 337 336 334 331 329 327 326 328 331 332 333 334 335 335 334 333
53 61 65 69 74 78 80 77 71 63 55 49 44 40 35 32 30 29 28 28 27 24 18 13 10 9 11 13 16 20 24 23 19 12 7 1 354 347 336 321 307 299 297 303 309 312 310 305 294 290 295 298 299 300 304 311 317 324 328 331 333 332 329 328 329 331 334 335 337 338 338 337 334 331 329 327 327 329 332 333 336 337 337 336 335 334
64 66 68 70 73 73 71 66 61 55 49 45 42 38 33 28 26 26 27 27 25 22 18 13 10 10 13 12 11 13 20 26 27 25 20 13 6 358 344 327 310 302 301 304 308 310 312 310 308 308 310 307 301 298 300 309 318 325 330 332 333 330 325 323 325 329 333 336 339 341 340 338 335 333 332 329 329 330 331 333 335 337 338 337 337 336
67 67 68 68 66 64 60 57 53 49 46 43 41 37 32 26 23 23 24 22 20 17 14 10 10 11 11 7 5 8 14 20 25 26 25 22 18 10 356 337 318 308 305 306 309 312 313 311 315 323 330 327 319 311 310 319 325 329 331 332 331 328 324 324 327 331 333 336 339 342 342 340 338 336 334 332 331 330 331 332 335 336 336 338 339 339
63 62 61 60 58 55 52 49 46 43 41 39 37 33 28 23 20 19 18 16 15 14 12 11 14 18 14 7 5 5 6 9 14 18 20 22 23 22 15 359 336 319 313 312 315 322 325 323 325 331 336 336 336 335 337 339 338 336 333 332 332 331 329 330 333 335 337 338 340 342 345 346 343 339 333 331 330 330 331 332 334 335 334 337 339 340
55 54 52 51 49 46 44 41 39 36 35 33 30 26 22 19 17 15 14 14 14 14 14 15 19 22 19 13 9 6 2 1 4 8 11 15 17 20 20 18 7 347 332 328 331 336 339 343 346 347 345 340 336 338 342 343 342 339 335 333 333 333 332 333 336 341 343 342 342 345 349 349 345 340 334 332 330 329 330 332 334 336 336 338 339 341
49 47 46 44 42 40 38 36 35 33 30 28 25 22 20 18 16 16 16 15 16 18 20 21 22 21 18 16 13 10 5 2 2 4 6 9 11 13 16 20 25 25 14 359 352 352 353 357 2 4 359 352 341 335 336 338 338 336 334 334 335 335 333 335 340 345 346 346 347 349 351 349 344 337 332 331 331 331 330 330 333 335 337 339 340 340
46 45 43 42 40 38 36 34 33 31 28 26 23 22 21 21 20 20 20 21 22 25 26 25 23 19 14 12 11 9 7 6 5 5 5 6 7 8 10 16 24 34 41 41 31 19 15 16 18 17 11 4 353 341 335 334 333 333 333 336 338 338 336 338 342 346 347 347 349 352 353 350 345 339 333 331 330 330 330 329 331 335 338 340 340 339
46 45 44 43 42 39 37 35 34 32 29 27 25 24 24 24 25 25 25 25 26 27 28 26 24 19 12 8 7 7 6 4 3 3 3 4 5 6 5 8 14 20 25 28 27 22 19 16 18 19 16 12 3 352 342 336 334 335 336 339 342 342 340 339 341 345 347 348 350 352 352 349 346 341 337 332 331 331 331 331 332 334 337 339 340 339
46 47 47 46 44 42 40 39 37 35 33 30 28 27 27 27 26 26 25 25 25 25 24 24 22 19 11 6 5 4 5 4 1 359 360 2 4 4 4 5 7 8 7 8 8 4 1 360 2 7 12 14 5 354 346 343 341 340 338 340 342 344 343 341 342 344 347 348 349 349 347 346 344 341 338 334 333 333 333 333 331 332 335 338 339 339